Regional Weather Roundup
Issued by NWS

Home | Current Version | Previous Version | Graphics & Text | Print | Product List | Glossary On
Versions: 1 2 3 4 5 6 7 8 9 10 11 12 13 14 15 16 17 18 19 20 21 22 23 24 25 26 27 28
000
ASUS45 KSLC 261110
RWRUT

UTAH REGIONAL WEATHER ROUNDUP
NATIONAL WEATHER SERVICE SALT LAKE CITY UT
400 AM MST SUN FEB 26 2017

UTZ001>011-023>025-261200-

NORTHERN UTAH

CITY           SKY/WX    TMP DP  RH WIND       PRES   REMARKS
BRIGHAM CITY     N/A     23  15  72 CALM      29.96F
HILL AFB       CLEAR     18  11  72 E9        29.93F WCI   7
LOGAN          CLEAR     14   9  80 CALM      29.95F
OGDEN          CLEAR     19  13  77 S9        29.94F WCI   8
SALT LAKE CITY PTCLDY    23  15  71 SE9       29.96F WCI  13
TOOELE VALLEY  CLEAR     21  14  73 S9        29.96S WCI  11
WENDOVER       CLEAR     19  12  73 W3        29.94F
HEBER CITY     FLURRIES   1  -2  85 CALM      29.94S
WEST JORDAN    CLEAR     23  19  85 S7        29.96S WCI  14

$$

UTZ011>015-024>027-261200-

CENTRAL/NORTHEAST UTAH

CITY           SKY/WX    TMP DP  RH WIND       PRES   REMARKS
PROVO AIRPORT  PTCLDY    10   6  84 E3        29.99F
MOAB/CANYONLAN CLEAR     22  12  65 CALM      29.93S
DELTA          CLEAR     19  16  86 NE3       29.94F
PRICE          PTCLDY    16   7  67 E3        29.90S
RICHFIELD      CLOUDY    18  18 100 CALM      29.97S
ROOSEVELT      PTCLDY    12   5  73 CALM      29.96S
VERNAL         CLEAR      4  -4  69 W3        29.94R

$$

UTZ013>016-019>022-027-261200-

SOUTHERN UTAH

CITY           SKY/WX    TMP DP  RH WIND       PRES   REMARKS
BRYCE CANYON   MOCLDY    10   5  80 NW6       29.87F HAZE    WCI   0
CEDAR CITY     PTCLDY    22  18  85 CALM      29.90S
MILFORD        PTCLDY    23  20  88 CALM      29.92F
ST GEORGE      MOSUNNY   32  23  69 SE3       29.95F
HANKSVILLE     CLEAR     23  18  80 E3        29.97S
KANAB          CLEAR     25  21  86 NE5       29.96S WCI  19
BLANDING       CLOUDY    25  19  77 CALM      29.97S

$$

REGIONAL REPORTS     COLORADO/ARIZONA

CITY           SKY/WX    TMP DP  RH WIND       PRES   REMARKS
CRAIG, CO      CLOUDY     4   0  83 W3        29.91S
GRAND JUNCTION CLEAR     18  10  71 CALM      29.94S
RIFLE, CO      CLOUDY    16  11  80 CALM      29.93S
MONTROSE, CO   CLOUDY    24  16  71 S3        29.93S
CORTEZ, CO     CLOUDY    22  17  81 SE3       29.89S
COLORADO CITY    N/A     25  21  86 E7        29.93F WCI  17
PAGE, AZ       MOCLDY    37  12  35 W3        29.91F
GRAND CANYON   CLOUDY    28  21  75 CALM      29.90F
KINGMAN, AZ    CLOUDY    41  15  35 NW3       29.89S
FLAGSTAFF, AZ  CLOUDY    27  20  75 CALM      29.90F

$$

REGIONAL REPORTS    NEVADA/IDAHO/WYOMING

CITY           SKY/WX    TMP DP  RH WIND       PRES   REMARKS
LAS VEGAS, NV  MOCLDY    41  24  51 S3        29.89F
ELY, NY        CLEAR      4   1  88 S12       29.89F WCI -12
ELKO, NV       CLEAR     17  12  80 CALM      29.90F
POCATELLO, ID  CLOUDY    13   7  77 W7        29.91F WCI   3
BURLEY, ID     PTCLDY    23  10  57 S14       29.90F WCI  11
FORT BRIDGER,    N/A      6   0  79 W14       29.86F WCI -12
EVANSTON, WY   CLOUDY     4  -1  80 SW9       29.83F WCI -10
ROCK SPRINGS,  CLOUDY     5   0  79 SW13      29.82S WCI -12
KEMMERER, WY     N/A      0  -4  85 SW8       29.81F WCI -15

$$




USA.gov is the U.S. government's official web portal to all federal, state and local government web resources and services.